Regional Weather Roundup
Issued by NWS

Home | Current Version | Previous Version | Graphics & Text | Print | Product List | Glossary Off
Versions: 1 2 3 4 5 6 7 8 9 10 11 12 13 14 15 16 17 18 19 20 21 22 23 24 25 26 27 28 29 30 31 32 33 34 35 36 37 38 39 40 41 42 43 44 45 46 47 48 49 50

000
ASUS43 KMPX 251910
RWRMN
WEATHER ROUNDUP FOR MINNESOTA
NATIONAL WEATHER SERVICE TWIN CITIES/CHANHASSEN MN
200 PM CDT TUE APR 25 2017


NOTE: "FAIR" INDICATES FEW OR NO CLOUDS BELOW 12,000 FEET WITH NO
SIGNIFICANT WEATHER AND/OR OBSTRUCTIONS TO VISIBILITY. N/A MEANS
CURRENT SKY AND/OR WEATHER CONDITIONS ARE NOT AVAILABLE.

MNZ060>063-068>070-252000-
   Twin Cities Metro

CITY           SKY/WX    TMP DP  RH WIND       PRES   REMARKS
TWIN CITIES    CLOUDY    56  45  66 SW9       29.57R
ST PAUL        CLOUDY    59  48  67 SW10      29.56R
CRYSTAL        CLOUDY    59  46  62 VRB8      29.54R
BLAINE         CLOUDY    63  48  59 CALM      29.53F
LAKEVILLE      DRIZZLE   50  46  87 SW5       29.58R
EDEN PRAIRIE   LGT RAIN  54  46  74 S9        29.57R
SOUTH ST PAUL  CLOUDY    58  46  64 SW10      29.56R
LAKE ELMO      PTSUNNY   63  45  51 SW3       29.54S
$$
MNZ001>005-007-008-013>017-022>024-027-028-252000-
   Northwest Minnesota

CITY           SKY/WX    TMP DP  RH WIND       PRES   REMARKS
BEMIDJI        CLOUDY    37  33  87 N10G17    29.71S
HALLOCK        CLOUDY    36  27  69 N21       29.86S
ROSEAU         CLOUDY    34  28  80 NE20      29.85R WCI  22
WARROAD        CLOUDY    32  27  80 N16G25    29.86R WCI  21
THIEF RVR FALL CLOUDY    34  28  79 N22       29.81R WCI  22
CROOKSTON      CLOUDY    36  30  80 NE14G22   29.82S
FOSSTON        CLOUDY    36  36 100 N16G23    29.75S
DETROIT LAKES  CLOUDY    41  36  81 N12G17    29.68S
MOORHEAD       CLOUDY    37  30  75 N23G29    29.73F
PARK RAPIDS    CLOUDY    41  32  70 N14       29.65F
MAHNOMEN       CLOUDY    37  34  87 N17       29.71S
$$
MNZ006-009>011-018-025>026-252000-
   North Central Minnesota

CITY           SKY/WX    TMP DP  RH WIND       PRES   REMARKS
BAUDETTE       CLOUDY    32  26  78 NE17G23   29.82R WCI  21
FLAG ISLAND    CLOUDY    30  25  80 NE25G32   29.86S WCI  16
INTL FALLS     CLOUDY    32  27  81 NE13G22   29.79R WCI  22
WASKISH        CLOUDY    34  32  93 N9G16     29.77R WCI  26
BIG FORK       CLOUDY    37  34  87 N12G17    29.72S
LONGVILLE      CLOUDY    39  36  87 N10G16    29.65F
GRAND RAPIDS   CLOUDY    40  36  86 N10G18    29.68S
CRANE LAKE     CLOUDY    34  32  93 N8        29.77R WCI  27
ORR            CLOUDY    34  30  86 NE3       29.71R
COOK           CLOUDY    37  36  93 N7        29.71S
WALKER         CLOUDY    37  34  88 N9        29.67F
$$
MNZ012-019>021-037-252000-
   Northeast Minnesota

CITY           SKY/WX    TMP DP  RH WIND       PRES   REMARKS
DULUTH         CLOUDY    56  40  55 E12       29.60F
ELY            CLOUDY    45  37  76 N6        29.68S
HIBBING        CLOUDY    45  39  79 N15       29.66S
EVELETH        CLOUDY    47  37  70 NE13      29.67R
DULUTH HARBOR  CLOUDY    43  39  87 E10       29.64R
TWO HARBORS    MOSUNNY   55  46  71 NE7       29.60F
SILVER BAY     LGT RAIN  52  43  71 NE6       29.63S
GRAND MARAIS     N/A     44  40  85 VRB3      29.66S
G MARAIS ARPRT LGT RAIN  45  37  76 N13       29.67S
$$
MNZ029>031-032-039>041-046>048-054>057-064-252000-
   West Central Minnesota

CITY           SKY/WX    TMP DP  RH WIND       PRES   REMARKS
FERGUS FALLS   CLOUDY    39  37  93 N16G25    29.66R
WHEATON        CLOUDY    37  34  87 NW23G31   29.69S
MORRIS         CLOUDY    43  37  81 NW20G26   29.61S
ALEXANDRIA     CLOUDY    45  38  76 N15       29.61R
ELBOW LAKE     CLOUDY    43  38  83 N13G21    29.63S
WADENA         CLOUDY    43  37  81 N14       29.62R
GLENWOOD       CLOUDY    48  39  71 N13       29.59R
APPLETON       CLOUDY    43  37  81 NW13G21   29.62S
BENSON         CLOUDY    50  37  62 NE12G18   29.62R
ORTONVILLE     CLOUDY    37  34  87 N22G29    29.64S
MADISON        CLOUDY    43  39  87 N20       29.63S
WILLMAR        PTSUNNY   54  45  71 NW6       29.58S
$$
MNZ033>034-036-042>043-049>051-058-059-252000-
   Central Minnesota

CITY           SKY/WX    TMP DP  RH WIND       PRES   REMARKS
ST CLOUD       CLOUDY    59  44  57 NE8       29.54F
SAUK CENTRE    FAIR      51  41  66 N10G16    29.57F
PAYNESVILLE    CLOUDY    57  42  58 NE9       29.55F
AITKIN         MOSUNNY   57  37  47 N15G21    29.58S
PINE RIVER     CLOUDY    43  37  81 N20G25    29.66F
BRAINERD       MOSUNNY   53  40  61 N15G22    29.59F
STAPLES        CLOUDY    45  37  76 N12G22    29.61F
LONG PRAIRIE   FAIR      50  39  66 NW12G20   29.58S
LITTLE FALLS   CLOUDY    55  41  58 N6G16     29.57S
LITCHFIELD     CLOUDY    59  48  67 NE6       29.55F
BUFFALO        CLOUDY    61  44  54 NE6       29.54F
MAPLE LAKE     CLOUDY    61  47  61 N6        29.55S
HUTCHINSON     MOSUNNY   58  48  68 CALM      29.57R
$$
MNZ037-044-045-052-053-252000-
   East Central Minnesota

CITY           SKY/WX    TMP DP  RH WIND       PRES   REMARKS
PRINCETON        N/A     64  45  48 NE5       29.54S
MORA           CLOUDY    61  41  48 NE3       29.55F
CAMBRIDGE      CLOUDY    66  48  52 NE3       29.51F
RUSH CITY      CLOUDY    65  43  44 N10       29.53F
MOOSE LAKE     CLOUDY    59  37  44 NE9       29.56F
HINCKLEY       FAIR      64  45  48 N9G16     29.55F
CLOQUET        CLOUDY    57  37  47 E9        29.59S
MCGREGOR       CLOUDY    55  43  62 NE10      29.60S
$$
MNZ071>073-080-081-089-090-097-098-252000-
   Southwest Minnesota

CITY           SKY/WX    TMP DP  RH WIND       PRES   REMARKS
MONTEVIDEO     CLOUDY    43  41  93 N16       29.59F
GRANITE FALLS  CLOUDY    44  40  85 NW15      29.61F
CANBY          CLOUDY    39  37  90 NW17      29.63F
MARSHALL       LGT RAIN  40  37  89 N17       29.60F
REDWOOD FALLS  CLOUDY    44  39  82 NW10      29.58F
OLIVIA         CLOUDY    50  43  76 W13       29.57S
PIPESTONE      RAIN      39  34  81 NE12G23   29.56F
WINDOM         LGT RAIN  39  39 100 N18       29.54F
WORTHINGTON    LGT RAIN  39  38  96 N22       29.54F
JACKSON        CLOUDY    41  39  93 VRB13G20  29.53R
TRACY          LGT RAIN  41  38  91 N17       29.58F
SLAYTON        CLOUDY    37  37  99 N16       29.57S FOG
$$
MNZ065>067-074>077-082>085-091>093-252000-
   South Central Minnesota

CITY           SKY/WX    TMP DP  RH WIND       PRES   REMARKS
MANKATO        LGT RAIN  45  43  93 NW8       29.57F
NEW ULM        LGT RAIN  45  41  87 NW10      29.58F
ST JAMES       RAIN      43  41  93 NW20      29.53F
FAIRMONT       LGT RAIN  42  41  96 N17       29.54F
GLENCOE        PTSUNNY   55  50  83 S9        29.57R
FARIBAULT      RAIN      46  45  93 SW6       29.59F
OWATONNA       RAIN      46  45  93 NW6       29.57F
WASECA         RAIN      45  41  87 N6        29.58F
ALBERT LEA     RAIN      45  45 100 N9        29.55S
$$
MNZ078>079-086>088-094>096-252000-
   Southeast Minnesota

CITY           SKY/WX    TMP DP  RH WIND       PRES   REMARKS
ROCHESTER      LGT RAIN  53  50  89 NW10      29.57R
RED WING       LGT RAIN  66  43  42 W15       29.54R
STANTON        LGT RAIN  53  46  77 SW7       29.57R
DODGE CENTER   RAIN      48  46  93 NW8       29.56F
WINONA         LGT RAIN  70  46  43 SW5       29.54R
AUSTIN         LGT RAIN  48  46  93 N5        29.55F
PRESTON        LGT RAIN  61  45  55 CALM      29.55F
$$
ABBREVIATIONS USED IN REMARKS
   TC - TEMPERATURES IN CELSIUS
  WCI - WIND CHILL INDEX
   HX - HEAT INDEX
  VSB - VISIBILITY
$$




USA.gov is the U.S. government's official web portal to all federal, state and local government web resources and services.